Lid_Strength_Index
0 0 1 1 -0 0 0 0 -0 0 0 -0 0 1 1 1 1 2 2 1 -0 -1 -1 -1 -1 -0 0 1 1 1 1 1 1 2 2 3 2 2 2 3 3 3 3
0 0 1 1 1 -0 0 0 1 0 0 0 0 1 1 1 1 1 1 2 -0 -1 -2 -1 -2 -1 -1 0 0 0 0 1 0 1 1 1 1 2 2 2 2 3 3
0 1 1 1 1 1 1 0 0 1 1 0 0 1 1 1 1 1 2 2 2 -0 -2 -2 -1 -1 -1 -1 -1 -1 -1 -1 -0 -0 0 0 1 1 1 1 1 1 2
1 1 1 1 1 1 1 2 2 2 2 1 1 1 1 1 1 1 1 0 1 1 1 -1 -1 -1 -1 -2 -1 -1 -2 -2 -2 -1 -1 -0 0 0 0 0 1 1 1
0 1 1 1 1 1 1 2 2 2 3 3 2 2 2 2 2 1 2 1 2 1 2 1 1 -0 -1 -1 -1 -0 -1 -2 -2 -2 -2 -1 -1 -1 -0 0 1 1 1
1 1 1 1 0 1 2 2 2 2 2 2 2 3 3 3 2 3 2 2 2 3 2 2 3 3 1 0 0 -0 -0 -1 -2 -2 -2 -2 -1 -1 0 0 0 -0 0
1 1 2 1 1 1 2 2 3 4 4 3 5 5 4 3 3 4 4 4 4 4 3 3 3 3 3 1 1 0 -0 -1 -2 -2 -1 -1 -1 -1 -1 -1 -1 -1 -1
1 1 1 2 2 1 2 2 2 3 4 4 4 5 6 5 5 5 5 5 5 5 4 4 4 5 4 5 5 2 1 -0 -1 -0 -0 -1 -1 -0 -1 -1 -0 -1 -2
0 0 1 1 1 2 3 2 3 3 4 5 4 4 7 8 7 7 7 6 5 5 5 5 5 5 5 6 5 4 2 2 1 1 0 0 0 -0 -0 -1 -1 -1 -1
1 0 1 1 1 1 2 2 2 3 4 5 5 5 5 6 7 8 7 8 8 7 6 6 6 6 6 5 6 6 5 3 3 2 2 2 1 1 0 -0 -0 -1 -0
0 0 0 1 1 1 1 2 2 2 3 4 5 6 6 5 5 6 6 6 6 7 6 6 6 6 6 6 6 6 6 4 4 3 3 3 2 2 1 1 0 -0 -1
1 1 1 1 1 1 1 1 1 2 2 2 3 5 5 6 6 6 7 6 6 6 6 6 6 5 5 6 6 7 6 5 4 4 3 3 3 3 2 1 1 0 0
3 1 1 1 1 1 0 1 1 1 1 2 2 3 3 4 4 5 6 6 7 6 6 5 4 5 4 5 4 7 7 5 4 4 4 4 4 3 3 3 2 2 1
5 3 1 1 0 0 1 1 1 1 1 2 2 2 3 3 3 4 5 6 7 6 6 5 4 4 4 4 8 8 6 8 6 6 6 6 5 5 5 4 3 3 3
4 4 3 1 1 1 1 1 1 1 1 1 1 2 3 3 3 3 4 4 5 8 7 5 5 5 6 6 10 9 8 9 8 8 7 6 6 5 5 4 4 3 3
4 4 2 1 1 1 1 1 1 2 2 2 2 2 3 4 4 5 4 4 5 5 7 5 5 7 8 9 10 11 9 9 8 7 6 6 5 5 5 4 4 4 3
5 4 4 5 5 5 4 3 3 3 5 6 7 7 7 7 8 8 7 8 8 8 8 7 6 8 10 11 10 9 8 9 9 8 7 6 6 6 6 6 5 5 5
8 7 7 7 7 7 6 7 7 7 8 9 9 9 9 9 9 9 9 10 9 9 9 10 10 11 11 11 10 10 10 10 10 9 7 7 7 7 7 6 6 5 5
8 8 9 8 9 8 8 8 9 9 10 10 11 11 11 10 10 10 10 11 11 10 11 12 12 12 11 11 12 12 12 12 10 9 8 8 8 7 7 6 6 6 7
10 10 9 9 9 9 9 9 9 11 11 12 12 12 12 12 11 11 12 12 12 12 13 13 12 11 12 12 13 13 13 12 12 11 10 10 9 8 8 7 8 8 7
11 10 10 10 9 10 9 9 10 10 12 13 13 12 12 13 12 12 13 13 13 14 13 13 13 14 14 14 14 13 14 13 14 12 12 11 11 11 11 9 9 8 7
11 11 11 10 10 10 9 10 10 11 12 13 14 14 13 13 11 11 11 11 12 12 13 13 14 14 14 14 14 14 14 15 16 16 13 13 14 13 12 11 8 8 7
12 13 12 12 12 11 10 10 11 12 13 13 14 14 14 14 14 14 11 11 11 10 11 12 13 14 14 13 13 14 15 15 16 15 15 17 16 14 12 11 8 8 7
13 13 14 14 12 10 10 11 12 13 14 14 14 14 14 14 13 13 13 13 13 13 12 12 12 13 13 13 13 14 14 15 18 17 15 19 15 15 12 12 9 8 7
15 15 15 14 14 12 11 11 13 14 15 15 14 14 14 13 11 11 13 14 14 13 12 11 11 12 12 12 12 13 15 16 22 20 15 16 17 14 14 15 11 8 8
15 15 15 15 15 14 12 12 13 14 14 14 13 13 11 12 11 12 14 14 15 14 15 16 15 14 13 13 13 14 14 16 19 22 16 17 16 15 17 16 12 10 10